| time (UTC) | temp F | wind direction | speed MPH | gust MPH | rain 1hr in | rain 24hr in | rain mn in | humidity % | barometer mb |
| 20260905190122 | 81 | 209 | 5.0 | 11.0 | 0.00 | 0.00 | 0.00 | 17 | 1017.4 |
| 20260905185122 | 81 | 196 | 4.0 | 9.0 | 0.00 | 0.00 | 0.00 | 17 | 1017.5 |
| 20260905184122 | 81 | 202 | 4.0 | 13.0 | 0.00 | 0.00 | 0.00 | 18 | 1017.6 |
| 20260905183122 | 81 | 208 | 6.0 | 14.0 | 0.00 | 0.00 | 0.00 | 17 | 1017.8 |
| 20260905182122 | 80 | 201 | 6.0 | 11.0 | 0.00 | 0.00 | 0.00 | 16 | 1017.9 |
| 20260905181143 | 80 | 201 | 6.0 | 12.0 | 0.00 | 0.00 | 0.00 | 17 | 1017.8 |
| 20260905180143 | 80 | 199 | 6.0 | 11.0 | 0.00 | 0.00 | 0.00 | 18 | 1017.9 |
| 20260905175122 | 79 | 204 | 6.0 | 13.0 | 0.00 | 0.00 | 0.00 | 20 | 1018.0 |
| 20260905174122 | 79 | 200 | 5.0 | 12.0 | 0.00 | 0.00 | 0.00 | 19 | 1018.1 |
| 20260905173122 | 79 | 202 | 6.0 | 16.0 | 0.00 | 0.00 | 0.00 | 22 | 1018.2 |
| 20260905172122 | 79 | 199 | 5.0 | 10.0 | 0.00 | 0.00 | 0.00 | 19 | 1018.2 |
| 20260905171122 | 79 | 196 | 6.0 | 14.0 | 0.00 | 0.00 | 0.00 | 18 | 1018.0 |
| 20260905170122 | 78 | 195 | 5.0 | 10.0 | 0.00 | 0.00 | 0.00 | 21 | 1018.2 |
| 20260905165122 | 78 | 196 | 5.0 | 10.0 | 0.00 | 0.00 | 0.00 | 20 | 1018.0 |
| 20260905164122 | 78 | 197 | 5.0 | 11.0 | 0.00 | 0.00 | 0.00 | 17 | 1018.0 |
| 20260905163122 | 78 | 192 | 4.0 | 10.0 | 0.00 | 0.00 | 0.00 | 19 | 1017.7 |
| 20260905162143 | 77 | 204 | 4.0 | 9.0 | 0.00 | 0.00 | 0.00 | 20 | 1017.7 |
| 20260905161122 | 77 | 162 | 2.0 | 11.0 | 0.00 | 0.00 | 0.00 | 26 | 1017.7 |
| 20260905160122 | 75 | 128 | 1.0 | 3.0 | 0.00 | 0.00 | 0.00 | 26 | 1017.6 |
| 20260905155122 | 74 | 143 | 1.0 | 3.0 | 0.00 | 0.00 | 0.00 | 27 | 1017.5 |
| 20260905154122 | 71 | 144 | 0.0 | 2.0 | 0.00 | 0.00 | 0.00 | 29 | 1017.4 |
| 20260905153122 | 69 | 144 | 0.0 | 1.0 | 0.00 | 0.00 | 0.00 | 34 | 1017.5 |
| 20260905152122 | 68 | 145 | 1.0 | 3.0 | 0.00 | 0.00 | 0.00 | 37 | 1017.5 |
| 20260905151122 | 65 | 141 | 0.0 | 3.0 | 0.00 | 0.00 | 0.00 | 43 | 1017.5 |
| 20260905150122 | 63 | 148 | 0.0 | 1.0 | 0.00 | 0.00 | 0.00 | 44 | 1017.4 |
| 20260905145122 | 61 | 0 | 0.0 | 0.0 | 0.00 | 0.00 | 0.00 | 46 | 1017.5 |
| 20260905144122 | 60 | 0 | 0.0 | 0.0 | 0.00 | 0.00 | 0.00 | 55 | 1017.5 |
| 20260905143122 | 59 | 0 | 0.0 | 0.0 | 0.00 | 0.00 | 0.00 | 47 | 1017.4 |
| 20260905142122 | 58 | 0 | 0.0 | 0.0 | 0.00 | 0.00 | 0.00 | 45 | 1017.5 |
| 20260905141122 | 58 | 0 | 0.0 | 0.0 | 0.00 | 0.00 | 0.00 | 45 | 1017.6 |
| 20260905140122 | 58 | 0 | 0.0 | 0.0 | 0.00 | 0.00 | 0.00 | 47 | 1017.6 |
| 20260905135122 | 59 | 0 | 0.0 | 0.0 | 0.00 | 0.00 | 0.00 | 46 | 1017.4 |
| 20260905134122 | 60 | 0 | 0.0 | 0.0 | 0.00 | 0.00 | 0.00 | 44 | 1017.3 |
| 20260905133122 | 61 | 0 | 0.0 | 0.0 | 0.00 | 0.00 | 0.00 | 39 | 1016.8 |
| 20260905132122 | 61 | 0 | 0.0 | 0.0 | 0.00 | 0.00 | 0.00 | 39 | 1016.6 |
| 20260905131122 | 62 | 0 | 0.0 | 0.0 | 0.00 | 0.00 | 0.00 | 40 | 1016.6 |
| 20260905130122 | 63 | 0 | 0.0 | 1.0 | 0.00 | 0.00 | 0.00 | 38 | 1016.4 |
| 20260905125122 | 64 | 0 | 0.0 | 0.0 | 0.00 | 0.00 | 0.00 | 35 | 1016.4 |
| 20260905124122 | 65 | 0 | 0.0 | 0.0 | 0.00 | 0.00 | 0.00 | 34 | 1016.4 |
| 20260905123143 | 65 | 0 | 0.0 | 0.0 | 0.00 | 0.00 | 0.00 | 35 | 1016.3 |
| 20260905122122 | 66 | 0 | 0.0 | 0.0 | 0.00 | 0.00 | 0.00 | 32 | 1016.2 |
| 20260905120122 | 66 | 101 | 0.0 | 2.0 | 0.00 | 0.00 | 0.00 | 32 | 1016.1 |
| 20260905115122 | 66 | 113 | 1.0 | 3.0 | 0.00 | 0.00 | 0.00 | 32 | 1016.0 |
| 20260905114122 | 66 | 116 | 1.0 | 3.0 | 0.00 | 0.00 | 0.00 | 33 | 1016.1 |
| 20260905113122 | 66 | 115 | 1.0 | 3.0 | 0.00 | 0.00 | 0.00 | 33 | 1016.0 |
| 20260905112122 | 66 | 103 | 1.0 | 3.0 | 0.00 | 0.00 | 0.00 | 33 | 1016.0 |
| 20260905111143 | 65 | 134 | 1.0 | 3.0 | 0.00 | 0.00 | 0.00 | 35 | 1016.1 |
| 20260905110122 | 64 | 134 | 1.0 | 3.0 | 0.00 | 0.00 | 0.00 | 38 | 1016.0 |
| 20260905105122 | 63 | 135 | 1.0 | 3.0 | 0.00 | 0.00 | 0.00 | 39 | 1016.0 |
| 20260905104122 | 63 | 135 | 0.0 | 2.0 | 0.00 | 0.00 | 0.00 | 41 | 1016.0 |
| 20260905103122 | 64 | 135 | 0.0 | 2.0 | 0.00 | 0.00 | 0.00 | 41 | 1016.1 |
| 20260905102122 | 65 | 135 | 0.0 | 2.0 | 0.00 | 0.00 | 0.00 | 40 | 1016.1 |
| 20260905101143 | 65 | 136 | 0.0 | 1.0 | 0.00 | 0.00 | 0.00 | 39 | 1016.1 |
| 20260905100122 | 65 | 135 | 0.0 | 2.0 | 0.00 | 0.00 | 0.00 | 38 | 1015.9 |
| 20260905095122 | 66 | 134 | 0.0 | 1.0 | 0.00 | 0.00 | 0.00 | 38 | 1015.7 |
| 20260905094143 | 66 | 137 | 1.0 | 4.0 | 0.00 | 0.00 | 0.00 | 37 | 1015.6 |
| 20260905093122 | 67 | 129 | 1.0 | 4.0 | 0.00 | 0.00 | 0.00 | 36 | 1015.5 |
| 20260905092122 | 67 | 134 | 0.0 | 2.0 | 0.00 | 0.00 | 0.00 | 37 | 1015.4 |
| 20260905091122 | 68 | 143 | 1.0 | 5.0 | 0.00 | 0.00 | 0.00 | 36 | 1015.3 |
| 20260905090143 | 68 | 117 | 1.0 | 4.0 | 0.00 | 0.00 | 0.00 | 35 | 1015.2 |
| 20260905085122 | 68 | 136 | 0.0 | 3.0 | 0.00 | 0.00 | 0.00 | 35 | 1015.1 |
| 20260905084122 | 68 | 115 | 1.0 | 2.0 | 0.00 | 0.00 | 0.00 | 36 | 1015.1 |
| 20260905083122 | 68 | 101 | 1.0 | 4.0 | 0.00 | 0.00 | 0.00 | 35 | 1014.9 |
| 20260905082122 | 68 | 127 | 0.0 | 3.0 | 0.00 | 0.00 | 0.00 | 36 | 1015.0 |
| 20260905081122 | 68 | 143 | 1.0 | 4.0 | 0.00 | 0.00 | 0.00 | 33 | 1014.9 |
| 20260905080122 | 67 | 154 | 1.0 | 3.0 | 0.00 | 0.00 | 0.00 | 38 | 1015.0 |
| 20260905075122 | 67 | 154 | 0.0 | 2.0 | 0.00 | 0.00 | 0.00 | 37 | 1014.9 |
| 20260905074122 | 68 | 154 | 0.0 | 2.0 | 0.00 | 0.00 | 0.00 | 38 | 1014.7 |
| 20260905073122 | 68 | 160 | 1.0 | 3.0 | 0.00 | 0.00 | 0.00 | 35 | 1014.6 |
| 20260905072143 | 68 | 175 | 1.0 | 5.0 | 0.00 | 0.00 | 0.00 | 38 | 1014.5 |
| 20260905071122 | 69 | 101 | 0.0 | 2.0 | 0.00 | 0.00 | 0.00 | 35 | 1014.4 |
| 20260905070122 | 69 | 112 | 0.0 | 2.0 | 0.00 | 0.00 | 0.00 | 35 | 1014.5 |
| 20260905065122 | 70 | 113 | 0.0 | 2.0 | 0.00 | 0.00 | 0.00 | 34 | 1014.3 |
| 20260905064122 | 70 | 0 | 0.0 | 0.0 | 0.00 | 0.00 | 0.00 | 33 | 1014.3 |
| 20260905063122 | 70 | 113 | 0.0 | 2.0 | 0.00 | 0.00 | 0.00 | 33 | 1014.2 |
| 20260905062122 | 70 | 115 | 0.0 | 1.0 | 0.00 | 0.00 | 0.00 | 33 | 1014.0 |
| 20260905061143 | 70 | 115 | 0.0 | 2.0 | 0.00 | 0.00 | 0.00 | 33 | 1013.9 |
| 20260905055143 | 71 | 115 | 0.0 | 2.0 | 0.00 | 0.00 | 0.00 | 32 | 1013.7 |
| 20260905054143 | 70 | 119 | 0.0 | 3.0 | 0.00 | 0.00 | 0.00 | 33 | 1013.6 |
| 20260905053122 | 70 | 120 | 0.0 | 2.0 | 0.00 | 0.00 | 0.00 | 34 | 1013.6 |
| 20260905052143 | 70 | 0 | 0.0 | 0.0 | 0.00 | 0.00 | 0.00 | 34 | 1013.5 |
| 20260905051122 | 70 | 0 | 0.0 | 0.0 | 0.00 | 0.00 | 0.00 | 36 | 1013.4 |
| 20260905050122 | 71 | 0 | 0.0 | 0.0 | 0.00 | 0.00 | 0.00 | 34 | 1013.4 |
| 20260905045122 | 71 | 120 | 0.0 | 1.0 | 0.00 | 0.00 | 0.00 | 33 | 1013.3 |
| 20260905044122 | 71 | 120 | 0.0 | 1.0 | 0.00 | 0.00 | 0.00 | 33 | 1013.3 |
| 20260905043122 | 71 | 0 | 0.0 | 0.0 | 0.00 | 0.00 | 0.00 | 32 | 1013.2 |
| 20260905042122 | 72 | 0 | 0.0 | 1.0 | 0.00 | 0.00 | 0.00 | 31 | 1013.2 |
| 20260905041122 | 72 | 0 | 0.0 | 0.0 | 0.00 | 0.00 | 0.00 | 30 | 1013.2 |
| 20260905040122 | 72 | 0 | 0.0 | 0.0 | 0.00 | 0.00 | 0.00 | 32 | 1013.1 |
| 20260905035122 | 73 | 120 | 0.0 | 1.0 | 0.00 | 0.00 | 0.00 | 34 | 1013.1 |
| 20260905034122 | 73 | 0 | 0.0 | 1.0 | 0.00 | 0.00 | 0.00 | 30 | 1013.0 |
| 20260905033122 | 73 | 0 | 0.0 | 0.0 | 0.00 | 0.00 | 0.00 | 29 | 1013.0 |
| 20260905032122 | 73 | 120 | 0.0 | 2.0 | 0.00 | 0.00 | 0.00 | 29 | 1012.8 |
| 20260905031122 | 73 | 0 | 0.0 | 1.0 | 0.00 | 0.00 | 0.00 | 29 | 1012.8 |
| 20260905030122 | 74 | 0 | 0.0 | 0.0 | 0.00 | 0.00 | 0.00 | 27 | 1012.8 |
| 20260905025122 | 74 | 0 | 0.0 | 0.0 | 0.00 | 0.00 | 0.00 | 28 | 1012.7 |
| 20260905024122 | 75 | 121 | 0.0 | 1.0 | 0.00 | 0.00 | 0.00 | 27 | 1012.4 |
| 20260905023122 | 76 | 83 | 1.0 | 4.0 | 0.00 | 0.00 | 0.00 | 25 | 1012.4 |
| 20260905022122 | 77 | 123 | 0.0 | 2.0 | 0.00 | 0.00 | 0.00 | 25 | 1012.3 |
| 20260905021122 | 78 | 186 | 0.0 | 1.0 | 0.00 | 0.00 | 0.00 | 24 | 1012.2 |
| 20260905020122 | 78 | 189 | 1.0 | 6.0 | 0.00 | 0.00 | 0.00 | 21 | 1012.1 |
| 20260905015122 | 79 | 199 | 2.0 | 8.0 | 0.00 | 0.00 | 0.00 | 20 | 1012.0 |
| 20260905014122 | 80 | 0 | 0.0 | 1.0 | 0.00 | 0.00 | 0.00 | 20 | 1012.1 |
| 20260905013122 | 81 | 152 | 1.0 | 6.0 | 0.00 | 0.00 | 0.00 | 23 | 1012.1 |
| 20260905012122 | 81 | 184 | 3.0 | 14.0 | 0.00 | 0.00 | 0.00 | 17 | 1012.1 |
| 20260905011122 | 82 | 188 | 5.0 | 20.0 | 0.00 | 0.00 | 0.00 | 16 | 1012.0 |
| 20260905010122 | 82 | 182 | 4.0 | 11.0 | 0.00 | 0.00 | 0.00 | 21 | 1012.1 |
| 20260905005122 | 82 | 188 | 7.0 | 19.0 | 0.00 | 0.00 | 0.00 | 16 | 1012.1 |
| 20260905004122 | 82 | 188 | 5.0 | 12.0 | 0.00 | 0.00 | 0.00 | 16 | 1012.1 |
| 20260905003143 | 83 | 196 | 6.0 | 14.0 | 0.00 | 0.00 | 0.00 | 19 | 1012.0 |
| 20260905002122 | 83 | 197 | 4.0 | 11.0 | 0.00 | 0.00 | 0.00 | 17 | 1012.2 |
| 20260905001122 | 83 | 173 | 2.0 | 7.0 | 0.00 | 0.00 | 0.00 | 18 | 1012.2 |
| 20260905000143 | 83 | 173 | 2.0 | 6.0 | 0.00 | 0.00 | 0.00 | 16 | 1012.1 |
| 20260904235122 | 83 | 188 | 3.0 | 8.0 | 0.00 | 0.00 | 0.00 | 17 | 1012.2 |
| 20260904234122 | 83 | 173 | 4.0 | 11.0 | 0.00 | 0.00 | 0.00 | 16 | 1012.2 |
| 20260904233122 | 83 | 183 | 3.0 | 8.0 | 0.00 | 0.00 | 0.00 | 16 | 1012.3 |
| 20260904232122 | 83 | 195 | 6.0 | 13.0 | 0.00 | 0.00 | 0.00 | 17 | 1012.5 |
| 20260904231122 | 83 | 190 | 5.0 | 16.0 | 0.00 | 0.00 | 0.00 | 17 | 1012.5 |
| 20260904230122 | 84 | 198 | 5.0 | 14.0 | 0.00 | 0.00 | 0.00 | 16 | 1012.5 |
| 20260904225143 | 84 | 200 | 6.0 | 16.0 | 0.00 | 0.00 | 0.00 | 16 | 1012.6 |
| 20260904224122 | 84 | 193 | 6.0 | 17.0 | 0.00 | 0.00 | 0.00 | 20 | 1012.7 |
| 20260904223143 | 85 | 187 | 7.0 | 18.0 | 0.00 | 0.00 | 0.00 | 15 | 1012.7 |
| 20260904222122 | 85 | 195 | 2.0 | 5.0 | 0.00 | 0.00 | 0.00 | 17 | 1012.7 |
| 20260904221122 | 85 | 180 | 2.0 | 7.0 | 0.00 | 0.00 | 0.00 | 16 | 1012.8 |
| 20260904220122 | 84 | 91 | 2.0 | 6.0 | 0.00 | 0.00 | 0.00 | 16 | 1012.8 |
| 20260904215122 | 84 | 198 | 3.0 | 8.0 | 0.00 | 0.00 | 0.00 | 16 | 1013.1 |
| 20260904214122 | 84 | 192 | 2.0 | 12.0 | 0.00 | 0.00 | 0.00 | 17 | 1013.0 |
| 20260904213122 | 84 | 201 | 7.0 | 16.0 | 0.00 | 0.00 | 0.00 | 17 | 1013.2 |
| 20260904212122 | 84 | 206 | 6.0 | 13.0 | 0.00 | 0.00 | 0.00 | 17 | 1013.4 |
| 20260904211122 | 85 | 183 | 3.0 | 9.0 | 0.00 | 0.00 | 0.00 | 17 | 1013.2 |
| 20260904210122 | 84 | 161 | 3.0 | 8.0 | 0.00 | 0.00 | 0.00 | 22 | 1013.3 |
| 20260904205122 | 84 | 195 | 5.0 | 12.0 | 0.00 | 0.00 | 0.00 | 18 | 1013.3 |
| 20260904204122 | 83 | 201 | 7.0 | 14.0 | 0.00 | 0.00 | 0.00 | 18 | 1013.5 |
| 20260904203122 | 84 | 186 | 4.0 | 12.0 | 0.00 | 0.00 | 0.00 | 19 | 1013.7 |
| 20260904202122 | 84 | 168 | 2.0 | 6.0 | 0.00 | 0.00 | 0.00 | 19 | 1013.4 |
| 20260904201122 | 83 | 191 | 5.0 | 13.0 | 0.00 | 0.00 | 0.00 | 20 | 1013.8 |
| 20260904200122 | 83 | 191 | 4.0 | 9.0 | 0.00 | 0.00 | 0.00 | 23 | 1013.9 |
| 20260904195122 | 82 | 185 | 5.0 | 12.0 | 0.00 | 0.00 | 0.00 | 25 | 1013.9 |
| 20260904194122 | 83 | 203 | 6.0 | 14.0 | 0.00 | 0.00 | 0.00 | 21 | 1013.9 |
| 20260904193122 | 83 | 187 | 3.0 | 8.0 | 0.00 | 0.00 | 0.00 | 22 | 1014.1 |
| 20260904192122 | 81 | 195 | 3.0 | 9.0 | 0.00 | 0.00 | 0.00 | 23 | 1014.0 |
| 20260904191122 | 80 | 205 | 6.0 | 9.0 | 0.00 | 0.00 | 0.00 | 24 | 1014.1 |